STARLINK-1557, 46034

Orbit data source: Space-Track

STARLINK-1557, 46034 is a payload satellite owned by SpaceX/Seattle (US) in LEO that was launched on Fri, 07 Aug 2020 UTC via an FALCON 9 launch vehicle from the Air Force Eastern Test Range (AFETR). Payload-class satellites include a variety of spacecraft equipped with specific instruments for various scientific and technological missions. These include communications satellites like Starlink; space stations such as the ISS; scientific satellites like the Hubble; Earth observation satellites from companies like Planet Labs, Umbra, and HawkEye 360; GPS; miniature CubeSats for education and research; and military/defense satellites.

Loading next visibility...
Identifier
46034, 2020-055H
Orbit
LEO
Country
Flag of USUS
Related business
Manufacturer
SpaceX/Seattle
Mission
Operational Commercial Communications
Bus & Motor
STARLINK, Unknown motor
Mass
260 kg wet, ~248 kg dry
Launch date (UTC)
2020-08-07 (6 years ago)
Launch vehicle
FALCON 9
Launch site
Air Force Eastern Test Range (AFETR)
Object type
Payload
Rocket body
Debris
Shape & HBR
Box + 1 Pan, 10.1 m
Radar Cross Section
13.562 m², Large (>1 m²)

Expand to show TLE details & history
Last TLE update: 1 day ago

TLE from 1 day ago
0 STARLINK-1557
1 46034U 20055H   26170.83469787  .00000533  00000-0  30123-4 0  9991
2 46034  53.1601  12.2545 0001265 111.8493 248.2643 15.30195299324502
Epoch: 2026-06-19T20:01Z
TLE epoch observation values (Epoch: 2026-06-19T20:01:57.895Z)
Latitude
Longitude
163.70529°
Altitude
476.45 km
Speed
7.629 km/s
True Right ascension
00h 49m 01s
True Declination
0° 00' 00"
Sunlit
Object was in daylight at epoch
Visualization orbit readout
Latitude
Unknown
Longitude
Unknown
Altitude
Unknown
Speed
Unknown
Apparent Right ascension
Unknown
Apparent Declination
Unknown
Sunlit
N/A
Visualization observer readout
Local Sidereal Time
08:01:53
Azimuth
Unknown
Elevation
Unknown
Doppler factor
Unknown
Orbital elements
Apogee altitude
476.353 km
Perigee altitude
474.619 km
Semi-major axis
6,853.623 km
Eccentricity
0.00013
Inclination
53.1601°
RAAN
12.2545°
Arg. of periapsis
111.8493°
True anomaly
248.25084°
Mean anomaly
248.2643°
Eccentric anomaly
248.25757°
Mean motion
3.82528 °/min
Orbital period
94.11 mins
BSTAR
0.000030123
Loading maneuver chart data...
Computing Atmospheric mass density...
Loading historical data...
Loading historical data...
Loading historical data...
Loading historical data...
Loading historical data...
Loading historical data...
Loading historical data...

Documentation

Showing up to 5 results
|